Location: Barcelona
(41.3830°N, 2.1830°E)
Time: 04:01:13
(UTC+02:00)

ISS - Pass Details

Date: 08 July 2020
Orbit: 417 x 421 km, 51.6° (Epoch: 09 July)

Event Time Altitude Azimuth Distance (km) Brightness Sun altitude
Exits shadow 03:24:30 21° 314° (NW) 1,002 -1.7 -23.0°
Maximum altitude 03:25:25 24° 339° (NNW) 925 -1.6 -22.9°
Drops below altitude 10° 03:28:12 10° 35° (NE) 1,498 0.1 -22.7°
Sets 03:30:35 0° 51° (NE) 2,363 1.1 -22.6°
